Location: Kimberly
(42.5380°N, 114.3640°W)
Time: 12:19:21
(UTC-06:00)

OTV 5 (USA 277) - Visible Passes

Search period start: 19 April 2019 00:00
Search period end: 29 April 2019 00:00
Orbit: 310 x 325 km, 54.5° (Epoch: 16 April)

Date Brightness Start Highest point End Pass type
(mag) Time Alt. Az. Time Alt. Az. Time Alt. Az.
19 Apr ? 05:10:00 10° NNW 05:11:55 17° NNE 05:13:50 10° ENE visible
20 Apr ? 05:24:22 10° NW 05:26:52 34° NNE 05:29:20 10° ESE visible
21 Apr ? 04:07:10 14° NNE 04:07:10 14° NNE 04:08:29 10° NE visible
21 Apr ? 05:38:59 10° NW 05:41:39 83° SW 05:44:18 10° SE visible
22 Apr ? 04:22:41 21° NE 04:22:41 21° NE 04:24:15 10° E visible
22 Apr ? 05:54:00 10° WNW 05:56:18 26° SW 05:58:36 10° SSE visible
22 Apr ? 22:13:59 10° SW 22:14:44 17° SW 22:14:44 17° SW visible
23 Apr ? 04:39:02 14° ESE 04:39:02 14° ESE 04:39:29 10° ESE visible
23 Apr ? 20:55:41 10° SSE 20:57:21 15° SE 20:59:02 10° E visible
23 Apr ? 22:28:53 10° WSW 22:31:28 38° NW 22:31:44 37° NNW visible
24 Apr ? 21:09:20 10° SSW 21:11:56 41° SE 21:14:31 10° ENE visible
24 Apr ? 22:44:19 10° WNW 22:46:23 19° NNW 22:47:48 14° NNE visible
25 Apr ? 21:23:56 10° WSW 21:26:39 63° NW 21:29:20 10° NE visible
25 Apr ? 23:00:20 10° NW 23:01:26 12° NNW 23:02:32 10° N visible
26 Apr ? 21:39:08 10° W 21:41:29 26° NNW 21:43:52 10° NNE visible
27 Apr ? 21:54:50 10° WNW 21:56:29 15° NNW 21:58:08 10° NNE visible
